Location: Hackberry
(29.5783°N, 96.8797°W)
Time: 15:05:11
(UTC+00:00)

Vanguard 2 Rocket - Pass Details

Date: 20 November 2024
Orbit: 554 x 3296 km, 32.9° (Epoch: 30 November)

Event Time Altitude Azimuth Distance (km) Brightness Sun altitude
Exits shadow 08:28:01 14° 116° (ESE) 3,409 10.0 -58.0°
Drops below altitude 10° 08:31:08 10° 100° (E) 4,043 10.5 -57.3°
Sets 08:37:40 0° 80° (E) 5,727 11.5 -55.9°
